| time (UTC) | temp C | wind direction | speed KPH | gust KPH | rain 1hr cm | rain 24hr cm | rain mn cm | humidity % | barometer mb |
| 20260906195006 | 34 | 17 | 0.0 | 3.2 | 0.00 | 0.00 | 0.00 | 61 | 1012.0 |
| 20260906194504 | 34 | 17 | 1.6 | 11.3 | 0.00 | 0.00 | 0.00 | 59 | 1012.1 |
| 20260906194004 | 35 | 279 | 3.2 | 11.3 | 0.00 | 0.00 | 0.00 | 58 | 1012.2 |
| 20260906193503 | 35 | 188 | 3.2 | 6.4 | 0.00 | 0.00 | 0.00 | 58 | 1012.2 |
| 20260906193006 | 35 | 65 | 3.2 | 8.0 | 0.00 | 0.00 | 0.00 | 58 | 1012.3 |
| 20260906192503 | 35 | 139 | 3.2 | 8.0 | 0.00 | 0.00 | 0.00 | 58 | 1012.3 |
| 20260906191505 | 34 | 153 | 3.2 | 9.7 | 0.00 | 0.00 | 0.00 | 60 | 1012.4 |
| 20260906191005 | 34 | 29 | 1.6 | 6.4 | 0.00 | 0.00 | 0.00 | 60 | 1012.6 |
| 20260906190505 | 34 | 195 | 3.2 | 8.0 | 0.00 | 0.00 | 0.00 | 61 | 1012.6 |
| 20260906190007 | 34 | 145 | 3.2 | 9.7 | 0.00 | 0.00 | 0.00 | 61 | 1012.7 |
| 20260906185503 | 33 | 194 | 3.2 | 8.0 | 0.00 | 0.00 | 0.00 | 61 | 1012.6 |
| 20260906185003 | 33 | 121 | 1.6 | 6.4 | 0.00 | 0.00 | 0.00 | 62 | 1012.7 |
| 20260906184503 | 33 | 233 | 1.6 | 6.4 | 0.00 | 0.00 | 0.00 | 62 | 1012.8 |
| 20260906184005 | 33 | 229 | 0.0 | 4.8 | 0.00 | 0.00 | 0.00 | 62 | 1013.0 |
| 20260906183504 | 33 | 300 | 1.6 | 4.8 | 0.00 | 0.00 | 0.00 | 63 | 1013.1 |
| 20260906183004 | 33 | 25 | 1.6 | 4.8 | 0.00 | 0.00 | 0.00 | 62 | 1013.0 |
| 20260906182503 | 33 | 86 | 1.6 | 4.8 | 0.00 | 0.00 | 0.00 | 63 | 1013.1 |
| 20260906181506 | 33 | 337 | 1.6 | 4.8 | 0.00 | 0.00 | 0.00 | 63 | 1013.1 |
| 20260906181005 | 33 | 343 | 1.6 | 4.8 | 0.00 | 0.00 | 0.00 | 64 | 1013.3 |
| 20260906180504 | 33 | 265 | 3.2 | 6.4 | 0.00 | 0.00 | 0.00 | 64 | 1013.4 |
| 20260906180005 | 33 | 140 | 3.2 | 6.4 | 0.00 | 0.00 | 0.00 | 64 | 1013.6 |
| 20260906175504 | 33 | 63 | 1.6 | 4.8 | 0.00 | 0.00 | 0.00 | 66 | 1013.7 |
| 20260906175004 | 33 | 5 | 1.6 | 4.8 | 0.00 | 0.00 | 0.00 | 66 | 1013.6 |
| 20260906174504 | 32 | 360 | 1.6 | 4.8 | 0.00 | 0.00 | 0.00 | 65 | 1013.9 |
| 20260906174004 | 32 | 91 | 1.6 | 3.2 | 0.00 | 0.00 | 0.00 | 66 | 1013.8 |
| 20260906173504 | 32 | 146 | 1.6 | 4.8 | 0.00 | 0.00 | 0.00 | 67 | 1014.0 |
| 20260906173004 | 32 | 218 | 3.2 | 8.0 | 0.00 | 0.00 | 0.00 | 67 | 1014.1 |
| 20260906172504 | 32 | 14 | 3.2 | 8.0 | 0.00 | 0.00 | 0.00 | 67 | 1014.1 |
| 20260906172004 | 32 | 341 | 3.2 | 6.4 | 0.00 | 0.00 | 0.00 | 67 | 1014.2 |
| 20260906171506 | 32 | 256 | 1.6 | 6.4 | 0.00 | 0.00 | 0.00 | 69 | 1014.3 |
| 20260906170504 | 31 | 221 | 3.2 | 11.3 | 0.00 | 0.00 | 0.00 | 70 | 1014.2 |
| 20260906170009 | 31 | 110 | 4.8 | 11.3 | 0.00 | 0.00 | 0.00 | 71 | 1014.3 |
| 20260906165505 | 31 | 169 | 3.2 | 9.7 | 0.00 | 0.00 | 0.00 | 72 | 1014.2 |
| 20260906165004 | 31 | 92 | 1.6 | 6.4 | 0.00 | 0.00 | 0.00 | 72 | 1014.4 |
| 20260906164505 | 30 | 10 | 1.6 | 4.8 | 0.00 | 0.00 | 0.00 | 71 | 1014.4 |
| 20260906164005 | 31 | 63 | 1.6 | 3.2 | 0.00 | 0.00 | 0.00 | 71 | 1014.5 |
| 20260906163504 | 31 | 355 | 1.6 | 6.4 | 0.00 | 0.00 | 0.00 | 73 | 1014.5 |
| 20260906163005 | 30 | 345 | 1.6 | 6.4 | 0.00 | 0.00 | 0.00 | 74 | 1014.6 |
| 20260906162504 | 30 | 187 | 3.2 | 8.0 | 0.00 | 0.00 | 0.00 | 74 | 1014.6 |
| 20260906161005 | 29 | 233 | 1.6 | 4.8 | 0.00 | 0.00 | 0.00 | 76 | 1014.5 |
| 20260906160504 | 29 | 360 | 1.6 | 8.0 | 0.00 | 0.00 | 0.00 | 78 | 1014.6 |
| 20260906160006 | 29 | 194 | 1.6 | 8.0 | 0.00 | 0.00 | 0.00 | 79 | 1014.7 |
| 20260906155504 | 28 | 355 | 0.0 | 4.8 | 0.00 | 0.00 | 0.00 | 79 | 1014.5 |
| 20260906155006 | 28 | 256 | 0.0 | 6.4 | 0.00 | 0.00 | 0.00 | 81 | 1014.6 |
| 20260906154505 | 28 | 257 | 1.6 | 6.4 | 0.00 | 0.00 | 0.00 | 83 | 1014.7 |
| 20260906154005 | 27 | 217 | 1.6 | 6.4 | 0.00 | 0.00 | 0.00 | 84 | 1014.6 |
| 20260906153504 | 27 | 32 | 1.6 | 4.8 | 0.00 | 0.00 | 0.00 | 85 | 1014.5 |
| 20260906153004 | 27 | 196 | 1.6 | 6.4 | 0.00 | 0.00 | 0.00 | 85 | 1014.5 |
| 20260906152504 | 26 | 175 | 1.6 | 6.4 | 0.00 | 0.00 | 0.00 | 86 | 1014.6 |
| 20260906152004 | 26 | 224 | 0.0 | 4.8 | 0.00 | 0.00 | 0.00 | 87 | 1014.5 |
| 20260906151504 | 26 | 157 | 1.6 | 11.3 | 0.00 | 0.00 | 0.00 | 87 | 1014.6 |
| 20260906151005 | 26 | 148 | 3.2 | 11.3 | 0.00 | 0.00 | 0.00 | 88 | 1014.6 |
| 20260906150503 | 26 | 172 | 1.6 | 6.4 | 0.00 | 0.00 | 0.00 | 89 | 1014.6 |
| 20260906145504 | 25 | 178 | 0.0 | 0.0 | 0.00 | 0.00 | 0.00 | 91 | 1014.7 |
| 20260906145005 | 25 | 120 | 0.0 | 0.0 | 0.00 | 0.00 | 0.00 | 91 | 1014.6 |
| 20260906144006 | 24 | 218 | 0.0 | 0.0 | 0.00 | 0.00 | 0.00 | 92 | 1014.5 |
| 20260906143009 | 24 | 218 | 0.0 | 4.8 | 0.00 | 0.00 | 0.00 | 92 | 1014.5 |
| 20260906142504 | 24 | 215 | 0.0 | 4.8 | 0.00 | 0.00 | 0.00 | 93 | 1014.5 |
| 20260906141503 | 24 | 174 | 0.0 | 6.4 | 0.00 | 0.00 | 0.00 | 93 | 1014.6 |
| 20260906141006 | 24 | 173 | 0.0 | 6.4 | 0.00 | 0.00 | 0.00 | 93 | 1014.6 |
| 20260906140503 | 24 | 215 | 0.0 | 0.0 | 0.00 | 0.00 | 0.00 | 93 | 1014.6 |
| 20260906140005 | 24 | 215 | 0.0 | 0.0 | 0.00 | 0.00 | 0.00 | 94 | 1014.7 |
| 20260906135504 | 23 | 215 | 0.0 | 0.0 | 0.00 | 0.00 | 0.00 | 94 | 1014.7 |
| 20260906135007 | 23 | 215 | 0.0 | 0.0 | 0.00 | 0.00 | 0.00 | 94 | 1014.6 |
| 20260906134504 | 23 | 215 | 0.0 | 0.0 | 0.00 | 0.00 | 0.00 | 94 | 1014.7 |
| 20260906134005 | 23 | 215 | 0.0 | 0.0 | 0.00 | 0.00 | 0.00 | 94 | 1014.6 |
| 20260906133505 | 23 | 215 | 0.0 | 0.0 | 0.00 | 0.00 | 0.00 | 94 | 1014.4 |
| 20260906133006 | 23 | 215 | 0.0 | 0.0 | 0.00 | 0.00 | 0.00 | 94 | 1014.5 |
| 20260906132504 | 23 | 215 | 0.0 | 0.0 | 0.00 | 0.00 | 0.00 | 94 | 1014.5 |
| 20260906132005 | 23 | 215 | 0.0 | 0.0 | 0.00 | 0.00 | 0.00 | 94 | 1014.5 |
| 20260906131505 | 23 | 215 | 0.0 | 0.0 | 0.00 | 0.00 | 0.00 | 94 | 1014.5 |
| 20260906131003 | 23 | 215 | 0.0 | 0.0 | 0.00 | 0.00 | 0.00 | 94 | 1014.4 |
| 20260906130503 | 23 | 215 | 0.0 | 0.0 | 0.00 | 0.00 | 0.00 | 94 | 1014.3 |
| 20260906130008 | 23 | 215 | 0.0 | 0.0 | 0.00 | 0.00 | 0.00 | 94 | 1014.3 |
| 20260906125504 | 23 | 215 | 0.0 | 0.0 | 0.00 | 0.00 | 0.00 | 94 | 1014.2 |
| 20260906125004 | 23 | 215 | 0.0 | 0.0 | 0.00 | 0.00 | 0.00 | 94 | 1014.1 |
| 20260906124505 | 23 | 215 | 0.0 | 0.0 | 0.00 | 0.00 | 0.00 | 94 | 1014.2 |
| 20260906124005 | 23 | 215 | 0.0 | 0.0 | 0.00 | 0.00 | 0.00 | 94 | 1014.1 |
| 20260906123503 | 23 | 215 | 0.0 | 0.0 | 0.00 | 0.00 | 0.00 | 94 | 1014.2 |
| 20260906123007 | 23 | 215 | 0.0 | 0.0 | 0.00 | 0.00 | 0.00 | 94 | 1014.1 |
| 20260906122505 | 23 | 215 | 0.0 | 0.0 | 0.00 | 0.00 | 0.00 | 94 | 1014.0 |
| 20260906122005 | 23 | 215 | 0.0 | 0.0 | 0.00 | 0.00 | 0.00 | 94 | 1014.0 |
| 20260906121504 | 23 | 215 | 0.0 | 0.0 | 0.00 | 0.00 | 0.00 | 94 | 1013.9 |
| 20260906120503 | 23 | 215 | 0.0 | 0.0 | 0.00 | 0.00 | 0.00 | 94 | 1014.0 |
| 20260906120006 | 23 | 215 | 0.0 | 0.0 | 0.00 | 0.00 | 0.00 | 94 | 1014.0 |
| 20260906115504 | 23 | 215 | 0.0 | 0.0 | 0.00 | 0.00 | 0.00 | 94 | 1013.9 |
| 20260906115005 | 23 | 215 | 0.0 | 0.0 | 0.00 | 0.00 | 0.00 | 94 | 1013.7 |
| 20260906114503 | 23 | 215 | 0.0 | 0.0 | 0.00 | 0.00 | 0.00 | 94 | 1013.7 |
| 20260906114005 | 23 | 215 | 0.0 | 0.0 | 0.00 | 0.00 | 0.00 | 94 | 1013.6 |
| 20260906113503 | 23 | 215 | 0.0 | 0.0 | 0.00 | 0.00 | 0.00 | 94 | 1013.7 |
| 20260906113006 | 23 | 215 | 0.0 | 0.0 | 0.00 | 0.00 | 0.00 | 94 | 1013.5 |
| 20260906112504 | 23 | 215 | 0.0 | 3.2 | 0.00 | 0.00 | 0.00 | 94 | 1013.4 |
| 20260906111505 | 23 | 232 | 0.0 | 0.0 | 0.00 | 0.00 | 0.00 | 94 | 1013.3 |
| 20260906111005 | 23 | 232 | 0.0 | 0.0 | 0.00 | 0.00 | 0.00 | 94 | 1013.2 |
| 20260906110504 | 23 | 232 | 0.0 | 0.0 | 0.00 | 0.00 | 0.00 | 94 | 1013.1 |
| 20260906110007 | 23 | 232 | 0.0 | 0.0 | 0.00 | 0.00 | 0.00 | 94 | 1013.1 |
| 20260906105503 | 23 | 232 | 0.0 | 0.0 | 0.00 | 0.00 | 0.00 | 93 | 1013.1 |
| 20260906104504 | 23 | 232 | 0.0 | 0.0 | 0.00 | 0.00 | 0.00 | 93 | 1013.1 |
| 20260906104004 | 23 | 232 | 0.0 | 0.0 | 0.00 | 0.00 | 0.00 | 93 | 1013.1 |
| 20260906103503 | 23 | 232 | 0.0 | 0.0 | 0.00 | 0.00 | 0.00 | 93 | 1013.0 |
| 20260906103005 | 23 | 232 | 0.0 | 0.0 | 0.00 | 0.00 | 0.00 | 93 | 1013.1 |
| 20260906102503 | 23 | 232 | 0.0 | 0.0 | 0.00 | 0.00 | 0.00 | 93 | 1013.0 |
| 20260906102004 | 23 | 232 | 0.0 | 0.0 | 0.00 | 0.00 | 0.00 | 93 | 1013.0 |
| 20260906101503 | 23 | 232 | 0.0 | 0.0 | 0.00 | 0.00 | 0.00 | 93 | 1012.9 |
| 20260906101006 | 23 | 232 | 0.0 | 0.0 | 0.00 | 0.00 | 0.00 | 93 | 1012.9 |
| 20260906100504 | 23 | 232 | 0.0 | 0.0 | 0.00 | 0.00 | 0.00 | 93 | 1013.0 |
| 20260906100008 | 23 | 232 | 0.0 | 0.0 | 0.00 | 0.00 | 0.00 | 93 | 1013.0 |
| 20260906095503 | 23 | 232 | 0.0 | 0.0 | 0.00 | 0.00 | 0.00 | 93 | 1013.2 |
| 20260906095004 | 23 | 232 | 0.0 | 0.0 | 0.00 | 0.00 | 0.00 | 92 | 1013.2 |
| 20260906094503 | 23 | 232 | 0.0 | 0.0 | 0.00 | 0.00 | 0.00 | 92 | 1013.2 |
| 20260906093504 | 23 | 232 | 0.0 | 0.0 | 0.00 | 0.00 | 0.00 | 93 | 1013.1 |
| 20260906093006 | 23 | 232 | 0.0 | 0.0 | 0.00 | 0.00 | 0.00 | 92 | 1012.9 |
| 20260906092503 | 23 | 232 | 0.0 | 0.0 | 0.00 | 0.00 | 0.00 | 92 | 1012.8 |
| 20260906092004 | 23 | 232 | 0.0 | 0.0 | 0.00 | 0.00 | 0.00 | 92 | 1012.7 |
| 20260906091505 | 23 | 232 | 0.0 | 0.0 | 0.00 | 0.00 | 0.00 | 93 | 1012.8 |
| 20260906091004 | 23 | 232 | 0.0 | 0.0 | 0.00 | 0.00 | 0.00 | 92 | 1012.8 |
| 20260906090503 | 23 | 232 | 0.0 | 0.0 | 0.00 | 0.00 | 0.00 | 92 | 1012.7 |
| 20260906090007 | 23 | 232 | 0.0 | 0.0 | 0.00 | 0.00 | 0.00 | 92 | 1012.7 |
| 20260906085503 | 23 | 232 | 0.0 | 0.0 | 0.00 | 0.00 | 0.00 | 93 | 1012.6 |
| 20260906085003 | 23 | 232 | 0.0 | 0.0 | 0.00 | 0.00 | 0.00 | 93 | 1012.5 |
| 20260906084504 | 23 | 232 | 0.0 | 0.0 | 0.00 | 0.00 | 0.00 | 93 | 1012.4 |
| 20260906084004 | 23 | 232 | 0.0 | 0.0 | 0.00 | 0.00 | 0.00 | 93 | 1012.5 |
| 20260906083503 | 23 | 232 | 0.0 | 0.0 | 0.00 | 0.00 | 0.00 | 92 | 1012.4 |
| 20260906083004 | 23 | 232 | 0.0 | 0.0 | 0.00 | 0.00 | 0.00 | 92 | 1012.5 |
| 20260906082504 | 23 | 232 | 0.0 | 0.0 | 0.00 | 0.00 | 0.00 | 92 | 1012.5 |
| 20260906082004 | 23 | 232 | 0.0 | 0.0 | 0.00 | 0.00 | 0.00 | 92 | 1012.5 |
| 20260906081503 | 23 | 232 | 0.0 | 0.0 | 0.00 | 0.00 | 0.00 | 92 | 1012.3 |
| 20260906081003 | 23 | 232 | 0.0 | 0.0 | 0.00 | 0.00 | 0.00 | 92 | 1012.2 |
| 20260906080503 | 23 | 232 | 0.0 | 0.0 | 0.00 | 0.00 | 0.00 | 92 | 1012.3 |
| 20260906080007 | 23 | 232 | 0.0 | 0.0 | 0.00 | 0.00 | 0.00 | 92 | 1012.3 |
| 20260906075502 | 23 | 232 | 0.0 | 0.0 | 0.00 | 0.00 | 0.00 | 92 | 1012.3 |
| 20260906075003 | 23 | 232 | 0.0 | 0.0 | 0.00 | 0.00 | 0.00 | 92 | 1012.3 |
| 20260906074503 | 23 | 232 | 0.0 | 1.6 | 0.00 | 0.00 | 0.00 | 92 | 1012.4 |
| 20260906074003 | 23 | 232 | 0.0 | 1.6 | 0.00 | 0.00 | 0.00 | 92 | 1012.5 |
| 20260906073503 | 23 | 232 | 0.0 | 0.0 | 0.00 | 0.00 | 0.00 | 91 | 1012.6 |
| 20260906073004 | 23 | 232 | 0.0 | 0.0 | 0.00 | 0.00 | 0.00 | 91 | 1012.6 |
| 20260906072003 | 23 | 232 | 0.0 | 0.0 | 0.00 | 0.00 | 0.00 | 91 | 1012.6 |
| 20260906071503 | 23 | 232 | 0.0 | 0.0 | 0.00 | 0.00 | 0.00 | 91 | 1012.5 |
| 20260906071004 | 23 | 232 | 0.0 | 0.0 | 0.00 | 0.00 | 0.00 | 91 | 1012.3 |
| 20260906070502 | 23 | 232 | 0.0 | 0.0 | 0.00 | 0.00 | 0.00 | 91 | 1012.3 |
| 20260906070004 | 23 | 232 | 0.0 | 0.0 | 0.00 | 0.00 | 0.00 | 91 | 1012.3 |
| 20260906065003 | 23 | 232 | 0.0 | 0.0 | 0.00 | 0.00 | 0.00 | 91 | 1012.3 |
| 20260906064503 | 23 | 232 | 0.0 | 0.0 | 0.00 | 0.00 | 0.00 | 91 | 1012.2 |
| 20260906064004 | 23 | 232 | 0.0 | 0.0 | 0.00 | 0.00 | 0.00 | 91 | 1012.2 |
| 20260906063503 | 23 | 232 | 0.0 | 0.0 | 0.00 | 0.00 | 0.00 | 91 | 1012.2 |
| 20260906063004 | 23 | 232 | 0.0 | 0.0 | 0.00 | 0.00 | 0.00 | 91 | 1012.3 |
| 20260906062502 | 23 | 232 | 0.0 | 0.0 | 0.00 | 0.00 | 0.00 | 91 | 1012.4 |
| 20260906062005 | 23 | 232 | 0.0 | 0.0 | 0.00 | 0.00 | 0.00 | 91 | 1012.5 |
| 20260906061503 | 23 | 232 | 0.0 | 0.0 | 0.00 | 0.00 | 0.00 | 91 | 1012.3 |
| 20260906061003 | 23 | 232 | 0.0 | 0.0 | 0.00 | 0.00 | 0.00 | 91 | 1012.3 |
| 20260906060503 | 23 | 232 | 0.0 | 0.0 | 0.00 | 0.00 | 0.00 | 90 | 1012.3 |
| 20260906055503 | 23 | 232 | 0.0 | 0.0 | 0.00 | 0.00 | 0.00 | 90 | 1012.4 |
| 20260906054005 | 23 | 232 | 0.0 | 1.6 | 0.00 | 0.00 | 0.00 | 90 | 1012.3 |
| 20260906053503 | 23 | 232 | 0.0 | 1.6 | 0.00 | 0.00 | 0.00 | 90 | 1012.3 |
| 20260906053005 | 23 | 232 | 0.0 | 3.2 | 0.00 | 0.00 | 0.00 | 90 | 1012.3 |
| 20260906052503 | 23 | 232 | 0.0 | 3.2 | 0.00 | 0.00 | 0.00 | 90 | 1012.5 |
| 20260906052004 | 23 | 232 | 0.0 | 0.0 | 0.00 | 0.00 | 0.00 | 90 | 1012.5 |
| 20260906051505 | 24 | 232 | 0.0 | 0.0 | 0.00 | 0.00 | 0.00 | 90 | 1012.3 |
| 20260906051005 | 24 | 232 | 0.0 | 0.0 | 0.00 | 0.00 | 0.00 | 90 | 1012.5 |
| 20260906050504 | 24 | 232 | 0.0 | 0.0 | 0.00 | 0.00 | 0.00 | 89 | 1012.3 |
| 20260906050011 | 24 | 232 | 0.0 | 0.0 | 0.00 | 0.00 | 0.00 | 89 | 1012.3 |
| 20260906045506 | 24 | 232 | 0.0 | 0.0 | 0.00 | 0.00 | 0.00 | 90 | 1012.2 |
| 20260906045006 | 24 | 232 | 0.0 | 0.0 | 0.00 | 0.00 | 0.00 | 90 | 1012.1 |
| 20260906044506 | 24 | 232 | 0.0 | 0.0 | 0.00 | 0.00 | 0.00 | 89 | 1012.2 |
| 20260906044007 | 24 | 232 | 0.0 | 0.0 | 0.00 | 0.00 | 0.00 | 89 | 1012.1 |
| 20260906043505 | 24 | 232 | 0.0 | 0.0 | 0.00 | 0.00 | 0.00 | 89 | 1012.1 |
| 20260906043007 | 24 | 232 | 0.0 | 1.6 | 0.00 | 0.00 | 0.00 | 89 | 1012.1 |
| 20260906042506 | 24 | 232 | 0.0 | 1.6 | 0.00 | 0.00 | 0.00 | 89 | 1012.1 |
| 20260906042007 | 24 | 232 | 0.0 | 1.6 | 0.00 | 0.00 | 0.00 | 89 | 1011.9 |
| 20260906041506 | 24 | 232 | 0.0 | 1.6 | 0.00 | 0.00 | 0.00 | 89 | 1011.9 |
| 20260906041006 | 24 | 232 | 0.0 | 0.0 | 0.00 | 0.00 | 0.00 | 89 | 1011.7 |
| 20260906040506 | 24 | 232 | 0.0 | 0.0 | 0.00 | 0.00 | 0.00 | 89 | 1011.7 |
| 20260906040008 | 24 | 232 | 0.0 | 0.0 | 0.00 | 0.00 | 0.00 | 89 | 1011.6 |
| 20260906035504 | 24 | 232 | 0.0 | 0.0 | 0.00 | 0.00 | 0.00 | 89 | 1011.7 |
| 20260906035005 | 24 | 232 | 0.0 | 0.0 | 0.00 | 0.00 | 0.00 | 89 | 1011.8 |
| 20260906034504 | 24 | 232 | 0.0 | 0.0 | 0.00 | 0.00 | 0.00 | 89 | 1011.7 |
| 20260906034005 | 24 | 232 | 0.0 | 0.0 | 0.00 | 0.00 | 0.00 | 89 | 1011.5 |
| 20260906033504 | 24 | 232 | 0.0 | 0.0 | 0.00 | 0.00 | 0.00 | 89 | 1011.5 |
| 20260906033004 | 24 | 232 | 0.0 | 0.0 | 0.00 | 0.00 | 0.00 | 89 | 1011.5 |
| 20260906032504 | 24 | 232 | 0.0 | 0.0 | 0.00 | 0.00 | 0.00 | 89 | 1011.4 |
| 20260906032004 | 25 | 232 | 0.0 | 0.0 | 0.00 | 0.00 | 0.00 | 89 | 1011.4 |
| 20260906031504 | 25 | 232 | 0.0 | 0.0 | 0.00 | 0.00 | 0.00 | 89 | 1011.3 |
| 20260906025005 | 25 | 232 | 0.0 | 0.0 | 0.00 | 0.00 | 0.00 | 87 | 1011.5 |
| 20260906024504 | 25 | 232 | 0.0 | 0.0 | 0.00 | 0.00 | 0.00 | 87 | 1011.5 |
| 20260906024004 | 25 | 232 | 0.0 | 0.0 | 0.00 | 0.00 | 0.00 | 87 | 1011.7 |
| 20260906023503 | 25 | 232 | 0.0 | 0.0 | 0.00 | 0.00 | 0.00 | 87 | 1011.8 |
| 20260906023005 | 25 | 232 | 0.0 | 0.0 | 0.00 | 0.00 | 0.00 | 86 | 1012.0 |
| 20260906022004 | 25 | 232 | 0.0 | 0.0 | 0.00 | 0.00 | 0.00 | 86 | 1012.2 |
| 20260906021504 | 25 | 232 | 0.0 | 0.0 | 0.00 | 0.00 | 0.00 | 86 | 1012.5 |
| 20260906020503 | 26 | 232 | 0.0 | 0.0 | 0.00 | 0.00 | 0.00 | 86 | 1012.5 |
| 20260906020007 | 26 | 232 | 0.0 | 0.0 | 0.00 | 0.00 | 0.00 | 86 | 1012.6 |
| 20260906015505 | 26 | 232 | 0.0 | 0.0 | 0.00 | 0.00 | 0.00 | 85 | 1012.5 |
| 20260906015006 | 26 | 232 | 0.0 | 0.0 | 0.00 | 0.00 | 0.00 | 85 | 1012.5 |
| 20260906014506 | 26 | 232 | 0.0 | 0.0 | 0.00 | 0.00 | 0.00 | 85 | 1012.7 |
| 20260906014006 | 26 | 232 | 0.0 | 0.0 | 0.00 | 0.00 | 0.00 | 85 | 1012.8 |
| 20260906013505 | 26 | 232 | 0.0 | 3.2 | 0.00 | 0.00 | 0.00 | 84 | 1012.9 |
| 20260906013007 | 26 | 232 | 0.0 | 3.2 | 0.00 | 0.00 | 0.00 | 84 | 1013.0 |
| 20260906012504 | 26 | 232 | 0.0 | 1.6 | 0.00 | 0.00 | 0.00 | 84 | 1013.3 |
| 20260906012006 | 26 | 232 | 1.6 | 6.4 | 0.00 | 0.00 | 0.00 | 83 | 1013.2 |
| 20260906011506 | 26 | 232 | 1.6 | 6.4 | 0.00 | 0.00 | 0.00 | 83 | 1013.2 |
| 20260906011006 | 26 | 221 | 1.6 | 4.8 | 0.00 | 0.00 | 0.00 | 83 | 1013.3 |
| 20260906010505 | 26 | 264 | 1.6 | 4.8 | 0.00 | 0.00 | 0.00 | 83 | 1013.1 |
| 20260906010006 | 26 | 240 | 0.0 | 4.8 | 0.00 | 0.00 | 0.00 | 82 | 1013.2 |
| 20260906005004 | 26 | 188 | 1.6 | 4.8 | 0.00 | 0.00 | 0.00 | 81 | 1013.2 |
| 20260906004004 | 27 | 211 | 0.0 | 3.2 | 0.00 | 0.00 | 0.00 | 80 | 1013.2 |
| 20260906003503 | 27 | 202 | 0.0 | 0.0 | 0.00 | 0.00 | 0.00 | 80 | 1013.2 |
| 20260906003007 | 27 | 202 | 0.0 | 3.2 | 0.00 | 0.00 | 0.00 | 79 | 1012.8 |
| 20260906002504 | 27 | 213 | 0.0 | 3.2 | 0.00 | 0.00 | 0.00 | 80 | 1012.7 |
| 20260906001505 | 27 | 251 | 0.0 | 0.0 | 0.00 | 0.00 | 0.00 | 80 | 1012.6 |
| 20260906001004 | 27 | 252 | 0.0 | 1.6 | 0.00 | 0.00 | 0.00 | 80 | 1012.6 |
| 20260906000007 | 27 | 169 | 1.6 | 4.8 | 0.00 | 0.00 | 0.00 | 80 | 1012.6 |
| 20260905235503 | 27 | 230 | 1.6 | 4.8 | 0.00 | 0.00 | 0.00 | 80 | 1012.6 |
| 20260905234504 | 27 | 251 | 0.0 | 4.8 | 0.00 | 0.00 | 0.00 | 80 | 1012.7 |
| 20260905234004 | 27 | 255 | 1.6 | 4.8 | 0.00 | 0.00 | 0.00 | 80 | 1012.6 |
| 20260905233503 | 27 | 221 | 1.6 | 3.2 | 0.00 | 0.00 | 0.00 | 81 | 1012.6 |
| 20260905233004 | 27 | 220 | 1.6 | 6.4 | 0.00 | 0.00 | 0.00 | 81 | 1012.6 |
| 20260905232504 | 27 | 208 | 1.6 | 6.4 | 0.00 | 0.00 | 0.00 | 81 | 1012.6 |
| 20260905232004 | 27 | 217 | 1.6 | 9.7 | 0.00 | 0.00 | 0.00 | 80 | 1012.6 |
| 20260905231505 | 27 | 216 | 1.6 | 8.0 | 0.00 | 0.00 | 0.00 | 80 | 1012.4 |
| 20260905231005 | 27 | 182 | 1.6 | 6.4 | 0.00 | 0.00 | 0.00 | 80 | 1012.2 |
| 20260905230503 | 28 | 223 | 3.2 | 6.4 | 0.00 | 0.00 | 0.00 | 80 | 1012.1 |
| 20260905230008 | 28 | 217 | 3.2 | 6.4 | 0.00 | 0.00 | 0.00 | 79 | 1012.0 |
| 20260905225503 | 28 | 221 | 3.2 | 8.0 | 0.00 | 0.00 | 0.00 | 79 | 1012.0 |
| 20260905225004 | 28 | 210 | 3.2 | 8.0 | 0.00 | 0.00 | 0.00 | 78 | 1012.1 |
| 20260905224504 | 28 | 216 | 4.8 | 12.9 | 0.00 | 0.00 | 0.00 | 77 | 1012.1 |
| 20260905224007 | 28 | 157 | 3.2 | 12.9 | 0.00 | 0.00 | 0.00 | 76 | 1012.1 |
| 20260905223503 | 28 | 241 | 3.2 | 16.1 | 0.00 | 0.00 | 0.00 | 75 | 1012.2 |
| 20260905222503 | 28 | 192 | 4.8 | 14.5 | 0.00 | 0.00 | 0.00 | 73 | 1012.0 |
| 20260905222005 | 28 | 284 | 4.8 | 17.7 | 0.00 | 0.00 | 0.00 | 72 | 1012.0 |
| 20260905221004 | 30 | 229 | 6.4 | 19.3 | 0.00 | 0.00 | 0.00 | 69 | 1011.9 |
| 20260905220503 | 30 | 236 | 4.8 | 17.7 | 0.00 | 0.00 | 0.00 | 68 | 1011.8 |
| 20260905220007 | 31 | 228 | 6.4 | 17.7 | 0.00 | 0.00 | 0.00 | 66 | 1011.9 |
| 20260905215503 | 31 | 171 | 8.0 | 17.7 | 0.00 | 0.00 | 0.00 | 64 | 1011.8 |
| 20260905215004 | 32 | 236 | 6.4 | 19.3 | 0.00 | 0.00 | 0.00 | 61 | 1011.7 |
| 20260905214004 | 34 | 38 | 3.2 | 12.9 | 0.00 | 0.00 | 0.00 | 57 | 1011.3 |
| 20260905213503 | 34 | 263 | 3.2 | 12.9 | 0.00 | 0.00 | 0.00 | 56 | 1011.1 |
| 20260905213005 | 34 | 132 | 3.2 | 6.4 | 0.00 | 0.00 | 0.00 | 55 | 1011.0 |
| 20260905212504 | 34 | 77 | 3.2 | 9.7 | 0.00 | 0.00 | 0.00 | 54 | 1010.9 |
| 20260905212004 | 34 | 213 | 3.2 | 9.7 | 0.00 | 0.00 | 0.00 | 55 | 1010.9 |
| 20260905210006 | 33 | 115 | 1.6 | 11.3 | 0.00 | 0.00 | 0.00 | 58 | 1011.0 |
| 20260905205504 | 33 | 24 | 0.0 | 4.8 | 0.00 | 0.00 | 0.00 | 58 | 1011.0 |
| 20260905205004 | 33 | 43 | 1.6 | 3.2 | 0.00 | 0.00 | 0.00 | 57 | 1011.0 |
| 20260905204505 | 34 | 74 | 3.2 | 12.9 | 0.00 | 0.00 | 0.00 | 56 | 1011.1 |
| 20260905204004 | 35 | 52 | 4.8 | 12.9 | 0.00 | 0.00 | 0.00 | 54 | 1011.1 |
| 20260905203503 | 35 | 172 | 3.2 | 11.3 | 0.00 | 0.00 | 0.00 | 55 | 1011.0 |
| 20260905203004 | 34 | 348 | 1.6 | 6.4 | 0.00 | 0.00 | 0.00 | 55 | 1011.1 |
| 20260905202506 | 34 | 28 | 1.6 | 6.4 | 0.00 | 0.00 | 0.00 | 56 | 1011.1 |
| 20260905202005 | 34 | 177 | 1.6 | 4.8 | 0.00 | 0.00 | 0.00 | 56 | 1011.2 |
| 20260905201505 | 35 | 38 | 1.6 | 6.4 | 0.00 | 0.00 | 0.00 | 55 | 1011.3 |
| 20260905200505 | 34 | 77 | 1.6 | 4.8 | 0.00 | 0.00 | 0.00 | 56 | 1011.3 |
| 20260905195504 | 34 | 60 | 3.2 | 8.0 | 0.00 | 0.00 | 0.00 | 58 | 1011.6 |